クリステンセン彗星

C/2005 W2 ( Christensen )

English version
Home page
Updated on February 4, 2007

---------------------------------------------------------------------

・ プロフィール

発見日 2005年11月20日
発見光度 17.1等
発見者 Eric J. Christensen (Catalina Sky Survey)

・ 軌道要素

The following orbital elements are taken from MPC 55979:

Epoch 2006 Apr. 15.0 TT = JDT 2453840.5
T 2006 Mar. 27.4480 TT                                  MPC
q   3.331533             (2000.0)            P               Q
n   0.0119285      Peri.  111.6883      +0.0226144      -0.9967320
a  18.970512       Node   336.6086      +0.8298044      +0.0619775
e   0.824384       Incl.   11.2643      +0.5575959      -0.0518093
P  82.6
From 201 observations 2005 Nov. 3-2006 Feb. 2, mean residual 0".6.

・ 光度変化

        m1 = 10.3 + 5 logΔ + 10.0 log r

---------------------------------------------------------------------

軌道要素はMPCのEphemerides and Orbital Elementsに掲載されたものです。
光度グラフはComet for Windowsで作成したものです。

---------------------------------------------------------------------

Copyright(C) Seiichi Yoshida (comet@aerith.net). All rights reserved.